User: anonymous   Login
Location: Unspecified
(0.0000°N, 0.0000°E)
Time: 16:38:14
(UTC+00:00)
Language:

COSMOS 2497 - Orbit

View from above orbital plane
View from above orbital plane
View from above satellite
View from above satellite

Ground track
Ground track

The orbit data is extracted from the following two-line orbital elements,

1 39762U 14028B   17204.83631475 +.00000010 +00000-0 +00000-0 0  9994
2 39762 082.4517 345.1189 0019703 313.3874 046.5568 12.42867415143806
Epoch (UTC): 23 July 2017 20:04:17
Eccentricity: 0.0019703
inclination: 82.4517°
perigee height: 1479 km
apogee height: 1510 km
right ascension of ascending node: 345.1189°
argument of perigee: 313.3874°
revolutions per day: 12.42867415
mean anomaly at epoch: 46.5568°
orbit number at epoch: 14380

The dashed part of the orbit path shows where the satellite is in the earth's shadow,  

DLR